Time (hhmmss), Depth12, Depth35, dec_lat, dec_lon, EDO_knt, SSCND, SSTMP, GPS_COG, GPS_SOG, Gyro, Air_Temp, IMET_BPR, HRH, Salinity, Wnd_Dir, Wnd_Spd, 
00:00:08, 85.32, 86.04, 43.614641, 14.310218, 6.99 , +44.8826, +12.9680, 225.0, 6.68, 227.2, 7.147, 984.43, 76.785, 38.8068, 355.5, 11.1415, 
00:01:08, 84.31, 85.85, 43.613285, 14.308441, 7.03 , +44.8937, +12.9812, 221.9, 7.23, 227.9, 7.203, 984.45, 76.980, 38.8040, 351.1, 11.6451, 
00:02:08, 84.68, 86.54, 43.611940, 14.306656, 6.90 , +44.9173, +12.9953, 223.0, 6.77, 227.5, 7.046, 984.56, 75.307, 38.8124, 349.8, 11.3676, 
00:03:08, 84.41, 85.39, 43.610601, 14.304805, 6.96 , +44.9263, +13.0048, 227.5, 6.58, 228.9, 7.162, 984.58, 76.144, 38.8113, 358.1, 11.0894, 
00:04:08, 83.04, 84.18, 43.609263, 14.302965, 6.71 , +44.9530, +13.0318, 226.3, 6.64, 228.9, 7.195, 984.47, 76.349, 38.8095, 353.9, 11.3860, 
00:05:08, 83.46, 84.32, 43.607923, 14.301131, 6.62 , +44.9902, +13.0588, 225.9, 6.74, 228.7, 7.269, 984.53, 76.801, 38.8178, 347.6, 11.1410, 
00:06:08, 83.77, 84.54, 43.606573, 14.299296, 6.66 , +45.0177, +13.0856, 218.7, 6.69, 229.0, 7.169, 984.43, 76.586, 38.8169, 343.9, 11.3197, 
00:07:08, 83.29, 84.30, 43.605251, 14.297400, 6.68 , +45.0116, +13.0799, 226.8, 7.00, 229.3, 6.987, 984.37, 73.904, 38.8168, 349.8, 11.4611, 
00:08:08, 83.47, 84.09, 43.603915, 14.295508, 6.60 , +45.0242, +13.0911, 227.6, 7.09, 228.2, 7.207, 984.53, 75.971, 38.8175, 350.9, 10.7138, 
00:09:08, 83.14, 84.06, 43.602533, 14.293658, 6.79 , +45.0326, +13.0991, 218.1, 6.76, 227.3, 7.057, 984.57, 74.991, 38.8174, 350.0, 10.0286, 
00:10:08, 82.84, 83.88, 43.601170, 14.291793, 6.64 , +45.0247, +13.0933, 226.3, 7.46, 229.3, 7.063, 984.60, 74.574, 38.8158, 352.9, 9.7941, 
00:11:08, 87.06, 88.03, 43.599813, 14.289915, 7.12 , +45.0403, +13.1073, 227.7, 6.95, 230.1, 7.078, 984.59, 73.685, 38.8165, 345.7, 10.2135, 
00:12:08, 83.69, 84.26, 43.598498, 14.288013, 7.24 , +44.9728, +13.0474, 220.4, 6.35, 229.3, 7.012, 984.70, 72.146, 38.8126, 344.7, 9.7617, 
00:13:08, 85.35, 84.64, 43.597171, 14.286156, 6.97 , +44.9771, +13.0493, 224.5, 7.09, 231.1, 7.100, 984.55, 73.869, 38.8148, 348.6, 10.1361, 
00:14:08, 83.26, 84.22, 43.595836, 14.284298, 6.08 , +44.9411, +13.0145, 218.1, 7.13, 229.5, 7.178, 984.54, 74.469, 38.8157, 347.5, 9.7980, 
00:15:08, 83.04, 84.07, 43.594523, 14.282411, 7.11 , +44.9222, +12.9988, 226.1, 7.09, 228.9, 7.135, 984.70, 74.269, 38.8135, 345.8, 9.6828, 
00:16:08, 83.81, 84.96, 43.593165, 14.280510, 7.03 , +44.9240, +13.0070, 230.3, 7.02, 227.8, 7.079, 984.51, 73.147, 38.8068, 346.9, 10.4239, 
00:17:08, 84.41, 85.30, 43.591780, 14.278663, 6.79 , +44.9068, +12.9876, 227.2, 6.61, 228.8, 7.105, 984.51, 73.007, 38.8101, 352.1, 10.2479, 
00:18:08, 84.50, 85.42, 43.590446, 14.276773, 6.44 , +44.8907, +12.9743, 227.6, 7.24, 230.4, 7.154, 984.53, 73.242, 38.8082, 354.0, 10.7525, 
00:19:08, 83.40, 86.85, 43.589113, 14.274841, 7.12 , +44.8758, +12.9602, 225.6, 7.43, 229.9, 7.168, 984.73, 73.647, 38.8082, 348.2, 9.8388, 
00:20:08, 84.49, 85.34, 43.587770, 14.272935, 6.20 , +44.8374, +12.9235, 223.7, 6.89, 228.8, 7.197, 984.70, 74.507, 38.8087, 346.4, 10.3307, 
00:21:08, 84.11, 85.46, 43.586411, 14.271045, 6.95 , +44.7641, +12.8496, 221.9, 6.94, 229.9, 7.127, 984.64, 74.593, 38.8135, 346.0, 9.8555, 
00:22:08, 83.43, 84.41, 43.585101, 14.269195, 6.50 , +44.6921, +12.7943, 224.9, 7.06, 229.8, 7.105, 984.47, 74.285, 38.8003, 348.3, 10.0795, 
00:23:08, 83.95, 84.78, 43.583808, 14.267298, 7.24 , +44.6053, +12.7205, 229.2, 6.68, 229.2, 7.031, 984.75, 73.254, 38.7918, 348.6, 11.0397, 
00:24:08, 84.35, 84.05, 43.582511, 14.265446, 6.29 , +44.6171, +12.7266, 223.7, 6.94, 229.2, 7.182, 984.60, 74.835, 38.7970, 347.2, 10.5454, 
00:25:08, 83.69, 84.66, 43.581215, 14.263665, 6.78 , +44.6060, +12.7114, 226.0, 6.94, 227.9, 7.237, 984.52, 75.179, 38.8019, 352.0, 10.8054, 
00:26:08, 83.76, 84.86, 43.579923, 14.261861, 7.04 , +44.6134, +12.7268, 225.3, 6.62, 229.3, 7.078, 984.67, 73.824, 38.7932, 346.2, 10.4278, 
00:27:08, 84.91, 88.22, 43.578593, 14.260095, 6.53 , +44.6461, +12.7477, 219.4, 6.89, 227.8, 7.194, 984.52, 75.204, 38.8036, 341.0, 10.3981, 
00:28:08, 83.85, 84.94, 43.577291, 14.258315, 6.79 , +44.6351, +12.7417, 224.5, 6.68, 230.1, 7.165, 984.53, 74.902, 38.7990, 348.9, 11.0644, 
00:29:08, 83.85, 84.81, 43.576016, 14.256475, 7.64 , +44.6619, +12.7673, 223.3, 6.92, 229.2, 7.248, 984.60, 75.833, 38.7987, 348.3, 10.6936, 
00:30:08, 84.31, 84.53, 43.574719, 14.254636, 6.82 , +44.6769, +12.7824, 226.6, 7.16, 229.1, 7.112, 984.64, 74.386, 38.7978, 347.3, 11.2879, 
00:31:08, 85.37, 85.86, 43.573406, 14.252778, 6.64 , +44.6700, +12.7745, 223.8, 6.93, 229.0, 7.115, 984.77, 74.514, 38.7992, 345.3, 10.8947, 
00:32:08, 85.84, 84.83, 43.572108, 14.250926, 6.75 , +44.6898, +12.7897, 226.8, 6.78, 228.7, 7.156, 984.79, 74.994, 38.8028, 349.7, 9.5677, 
00:33:08, 86.32, 85.48, 43.570808, 14.249028, 7.15 , +44.6609, +12.7741, 230.3, 6.94, 229.5, 7.178, 984.64, 74.806, 38.7908, 347.0, 10.6638, 
00:34:08, 86.71, 85.62, 43.569490, 14.247133, 7.20 , +44.6677, +12.7824, 229.3, 6.82, 228.9, 7.132, 984.67, 74.386, 38.7888, 348.5, 9.8450, 
00:35:08, 84.50, 91.11, 43.568193, 14.245226, 7.04 , +44.6585, +12.7709, 222.3, 6.94, 229.4, 7.084, 984.62, 73.612, 38.7917, 346.9, 10.4509, 
00:36:08, 86.85, 91.12, 43.566871, 14.243353, 6.95 , +44.6563, +12.7774, 228.6, 6.92, 229.0, 7.037, 984.79, 72.793, 38.7829, 346.8, 9.8275, 
00:37:08, 85.04, 86.02, 43.565526, 14.241530, 7.06 , +44.6603, +12.7799, 223.3, 6.63, 227.5, 7.148, 984.62, 73.219, 38.7842, 348.3, 10.7474, 
00:38:08, 86.30, 90.59, 43.564231, 14.239643, 7.12 , +44.6880, +12.8018, 221.8, 7.09, 228.5, 7.100, 984.79, 72.376, 38.7886, 350.6, 10.2819, 
00:39:08, 84.24, 85.28, 43.562891, 14.237766, 6.48 , +44.7274, +12.8315, 225.4, 6.87, 227.6, 7.100, 984.76, 72.174, 38.7964, 354.4, 9.5621, 
00:40:08, 84.54, 90.60, 43.561571, 14.235866, 7.24 , +44.7415, +12.8411, 231.4, 6.75, 228.2, 7.160, 984.68, 73.675, 38.8002, 347.0, 10.2596, 
00:41:08, 85.69, 90.37, 43.560240, 14.233956, 6.92 , +44.7704, +12.8669, 225.8, 7.04, 228.5, 7.263, 984.64, 75.425, 38.8018, 349.2, 10.2126, 
00:42:08, 86.30, 85.70, 43.558895, 14.232113, 6.89 , +44.7867, +12.8808, 226.0, 6.88, 228.5, 7.124, 984.60, 74.189, 38.8033, 353.4, 11.5069, 
00:43:08, 84.59, 91.37, 43.557581, 14.230191, 7.07 , +44.8087, +12.9001, 226.7, 7.09, 229.1, 7.139, 984.67, 73.980, 38.8048, 357.0, 10.7397, 
00:44:08, 85.24, 91.98, 43.556244, 14.228308, 6.68 , +44.8242, +12.9131, 223.6, 6.47, 227.1, 7.172, 984.59, 74.145, 38.8065, 349.2, 10.7553, 
00:45:08, 85.39, 86.21, 43.554908, 14.226473, 6.57 , +44.8468, +12.9303, 228.3, 6.96, 228.8, 7.153, 984.45, 74.224, 38.8108, 352.3, 10.8369, 
00:46:08, 84.59, 85.57, 43.553596, 14.224584, 6.21 , +44.8475, +12.9333, 227.8, 7.10, 228.4, 7.201, 984.68, 74.701, 38.8084, 355.3, 10.5689, 
00:47:08, 84.94, 90.11, 43.552259, 14.222716, 6.63 , +44.8412, +12.9316, 224.5, 6.75, 227.9, 7.183, 984.39, 74.577, 38.8040, 348.8, 10.9602, 
00:48:08, 83.99, 88.90, 43.550906, 14.220853, 6.95 , +44.8357, +12.9256, 228.5, 7.07, 228.5, 7.100, 984.54, 73.869, 38.8048, 353.8, 11.1866, 
00:49:08, 87.12, 89.17, 43.549585, 14.218921, 6.68 , +44.8199, +12.9102, 226.0, 6.82, 229.3, 7.039, 984.78, 73.042, 38.8053, 355.7, 10.3346, 
00:50:08, 84.49, 89.21, 43.548241, 14.217013, 6.67 , +44.7998, +12.8952, 219.7, 7.20, 226.8, 7.168, 984.74, 73.406, 38.8012, 354.4, 10.3994, 
00:51:08, 88.49, 89.51, 43.546900, 14.215125, 6.91 , +44.7898, +12.8842, 225.3, 7.18, 227.0, 7.109, 984.70, 72.023, 38.8028, 358.5, 10.5774, 
00:52:08, 84.66, 89.61, 43.545501, 14.213326, 6.52 , +44.7901, +12.8857, 221.3, 7.24, 227.6, 7.168, 984.60, 72.272, 38.8016, 353.0, 9.8752, 
00:53:08, 84.66, 89.88, 43.544170, 14.211410, 6.28 , +44.7859, +12.8797, 223.3, 7.04, 228.6, 7.323, 984.70, 73.891, 38.8037, 359.8, 10.9489, 
00:54:08, 84.66, 85.48, 43.542811, 14.209533, 6.68 , +44.7761, +12.8731, 226.9, 6.93, 226.6, 7.288, 984.74, 74.002, 38.8009, 353.7, 10.5180, 
00:55:08, 84.90, 92.35, 43.541450, 14.207695, 6.68 , +44.7630, +12.8634, 221.7, 6.92, 227.5, 7.186, 984.83, 73.698, 38.7982, 350.0, 10.3568, 
00:56:08, 84.51, 89.88, 43.540123, 14.205780, 7.16 , +44.7623, +12.8608, 228.5, 6.98, 228.6, 7.169, 984.59, 73.726, 38.8002, 350.7, 10.7560, 
00:57:08, 84.70, 90.08, 43.538778, 14.203883, 7.06 , +44.7504, +12.8487, 227.9, 6.79, 227.8, 7.072, 984.79, 73.327, 38.8011, 350.1, 11.3866, 
00:58:08, 84.77, 85.64, 43.537419, 14.202055, 7.58 , +44.7363, +12.8382, 222.3, 6.62, 225.1, 6.989, 984.85, 72.392, 38.7982, 348.6, 11.4646, 
00:59:08, 89.37, 90.46, 43.536011, 14.200233, 6.61 , +44.7097, +12.8114, 224.1, 6.89, 226.4, 7.027, 984.91, 72.407, 38.7999, 349.3, 11.0544, 
01:00:08, 84.63, 90.00, 43.534628, 14.198373, 7.41 , +44.6980, +12.8020, 230.2, 6.55, 229.4, 7.142, 984.76, 73.324, 38.7982, 351.1, 10.8460, 
01:01:08, 84.66, 90.57, 43.533303, 14.196456, 7.21 , +44.6908, +12.7947, 229.2, 6.44, 226.7, 7.027, 984.75, 72.796, 38.7987, 348.1, 10.5112, 
01:02:08, 90.78, 85.60, 43.531920, 14.194628, 6.87 , +44.6891, +12.7858, 223.2, 6.56, 226.9, 7.255, 984.83, 74.596, 38.8062, 346.0, 10.9630, 
01:03:08, 83.61, 90.49, 43.530566, 14.192791, 7.30 , +44.6850, +12.7823, 226.9, 6.87, 227.9, 7.203, 984.75, 74.199, 38.8058, 346.0, 10.5526, 
01:04:08, 83.83, 90.98, 43.529243, 14.190905, 6.77 , +44.6609, +12.7635, 221.8, 7.05, 228.5, 7.157, 984.91, 75.332, 38.8017, 346.4, 10.8489, 
01:05:08, 83.81, 90.60, 43.527911, 14.189033, 7.00 , +44.6439, +12.7429, 222.8, 6.82, 227.8, 7.091, 984.64, 74.994, 38.8064, 346.4, 10.4573, 
01:06:08, 83.28, 90.02, 43.526566, 14.187158, 6.80 , +44.6219, +12.7213, 219.4, 7.21, 227.8, 7.088, 984.99, 75.122, 38.8072, 349.5, 10.6410, 
01:07:08, 83.47, 84.50, 43.525188, 14.185311, 6.96 , +44.5839, +12.6875, 218.9, 7.03, 227.7, 7.183, 984.82, 76.397, 38.8050, 345.5, 10.3237, 
01:08:08, 83.17, 89.93, 43.523830, 14.183470, 6.85 , +44.5331, +12.6388, 224.1, 7.00, 227.8, 7.166, 984.81, 76.422, 38.8056, 342.9, 10.9062, 
01:09:08, 83.09, 89.60, 43.522465, 14.181600, 6.93 , +44.4621, +12.5735, 223.6, 7.05, 227.5, 6.987, 984.77, 75.208, 38.8037, 349.1, 10.4491, 
01:10:08, 83.05, 89.24, 43.521011, 14.179831, 6.58 , +44.3887, +12.4873, 215.0, 7.04, 226.1, 7.162, 984.83, 76.817, 38.8210, 347.8, 10.2803, 
01:11:08, 82.81, 91.59, 43.519551, 14.178020, 7.10 , +44.4597, +12.5493, 222.9, 7.09, 229.1, 7.084, 984.77, 76.461, 38.8264, 345.9, 9.7914, 
01:12:08, 87.03, 88.77, 43.518096, 14.176140, 7.38 , +44.4895, +12.5818, 223.8, 7.06, 229.9, 7.022, 984.90, 76.147, 38.8219, 343.3, 10.2364, 
01:13:08, 86.90, 00.00, 43.516635, 14.174253, 7.08 , +44.5200, +12.6087, 224.4, 7.09, 228.9, 6.938, 984.73, 74.501, 38.8240, 340.6, 10.6462, 
01:14:08, 82.07, 82.94, 43.515158, 14.172363, 6.92 , +44.5326, +12.6221, 216.6, 7.32, 230.6, 7.001, 984.84, 74.431, 38.8224, 349.0, 10.6463, 
01:15:08, 81.64, 89.66, 43.513720, 14.170458, 6.96 , +44.5491, +12.6382, 228.5, 7.29, 230.6, 6.962, 984.79, 73.295, 38.8219, 349.3, 10.9894, 
01:16:08, 81.77, 89.05, 43.512295, 14.168538, 7.29 , +44.5633, +12.6485, 227.1, 7.10, 229.4, 7.070, 984.84, 74.688, 38.8252, 351.0, 9.3392, 
01:17:08, 80.33, 87.01, 43.510836, 14.166626, 7.54 , +44.5715, +12.6594, 225.4, 7.54, 230.8, 6.938, 984.82, 74.399, 38.8219, 345.6, 10.1817, 
01:18:08, 86.26, 87.43, 43.509431, 14.164681, 5.80 , +44.5682, +12.6595, 229.4, 7.31, 231.0, 7.078, 984.67, 75.888, 38.8186, 353.7, 9.3672, 
01:19:08, 80.47, 86.90, 43.508035, 14.162751, 7.06 , +44.5153, +12.6102, 224.1, 7.19, 231.8, 6.977, 984.90, 75.278, 38.8178, 350.9, 10.4113, 
01:20:08, 84.94, 86.87, 43.506630, 14.160805, 7.05 , +44.4990, +12.6012, 227.6, 7.42, 230.2, 6.950, 984.78, 75.466, 38.8112, 348.6, 9.8555, 
01:21:08, 79.74, 86.15, 43.505215, 14.158891, 7.00 , +44.4866, +12.5876, 220.8, 7.90, 230.1, 6.974, 984.73, 75.846, 38.8131, 351.2, 10.3146, 
01:22:08, 85.02, 85.96, 43.503796, 14.157011, 6.96 , +44.4769, +12.5768, 226.9, 7.00, 231.4, 6.959, 984.65, 75.517, 38.8148, 350.0, 10.3168, 
01:23:08, 79.75, 85.61, 43.502423, 14.155033, 7.24 , +44.4286, +12.5275, 225.3, 7.07, 232.4, 7.033, 984.67, 75.240, 38.8185, 357.3, 10.4702, 
01:24:08, 83.83, 84.82, 43.501056, 14.153030, 6.49 , +44.4574, +12.5522, 226.9, 7.34, 232.3, 7.034, 984.66, 74.660, 38.8211, 354.2, 10.1198, 
01:25:08, 83.47, 79.32, 43.499640, 14.151116, 6.83 , +44.3693, +12.4780, 223.5, 7.06, 229.4, 7.129, 984.73, 75.709, 38.8116, 350.8, 10.2168, 
01:26:08, 83.69, 00.00, 43.498233, 14.149193, 7.02 , +44.3699, +12.4770, 227.4, 7.04, 232.4, 6.971, 984.61, 73.457, 38.8132, 351.6, 10.6766, 
01:27:08, 82.53, 79.19, 43.496843, 14.147211, 6.84 , +44.3745, +12.4800, 229.8, 7.17, 233.5, 7.012, 984.90, 73.071, 38.8146, 352.2, 9.8416, 
01:28:08, 82.80, 79.19, 43.495453, 14.145254, 6.95 , +44.3801, +12.4813, 228.1, 6.75, 232.7, 7.132, 984.79, 74.355, 38.8188, 354.2, 10.1480, 
01:29:08, 77.85, 78.72, 43.494056, 14.143286, 7.01 , +44.3801, +12.4876, 226.8, 7.39, 232.0, 7.046, 984.75, 73.571, 38.8122, 351.7, 10.5259, 
01:30:08, 77.65, 83.77, 43.492651, 14.141373, 6.92 , +44.3807, +12.4878, 225.1, 7.08, 231.1, 7.103, 984.88, 73.996, 38.8126, 349.6, 10.5310, 
01:31:08, 82.04, 78.32, 43.491228, 14.139460, 7.27 , +44.3821, +12.4819, 226.3, 6.89, 233.1, 7.066, 984.85, 73.691, 38.8201, 349.9, 10.3021, 
01:32:08, 77.22, 91.67, 43.489860, 14.137498, 7.62 , +44.3826, +12.4872, 223.2, 6.78, 232.8, 7.162, 984.98, 74.768, 38.8151, 353.8, 11.0570, 
01:33:08, 82.40, 78.30, 43.488463, 14.135598, 6.04 , +44.3863, +12.4890, 224.4, 6.63, 232.1, 7.082, 984.93, 73.083, 38.8169, 351.4, 10.8448, 
01:34:08, 76.72, 77.62, 43.487061, 14.133686, 6.90 , +44.4048, +12.5049, 217.6, 6.95, 232.1, 7.018, 985.03, 72.499, 38.8185, 354.3, 11.2577, 
01:35:08, 76.01, 76.95, 43.485663, 14.131753, 6.88 , +44.4174, +12.5184, 223.8, 6.96, 233.7, 7.136, 985.06, 74.345, 38.8169, 353.7, 10.1454, 
01:36:08, 75.40, 83.77, 43.484268, 14.129800, 7.03 , +44.4349, +12.5323, 228.4, 7.07, 233.5, 7.037, 984.95, 73.302, 38.8197, 350.0, 10.9839, 
01:37:08, 75.73, 76.63, 43.482900, 14.127830, 7.01 , +44.4418, +12.5372, 230.2, 7.14, 233.1, 6.929, 984.90, 71.576, 38.8214, 352.4, 9.8623, 
01:38:08, 80.86, 76.45, 43.481478, 14.125911, 6.69 , +44.4493, +12.5474, 228.8, 6.98, 231.9, 7.100, 985.14, 74.094, 38.8182, 345.4, 10.4279, 
01:39:08, 75.58, 76.40, 43.480071, 14.123991, 6.94 , +44.4509, +12.5481, 226.6, 7.08, 232.5, 6.994, 985.00, 74.981, 38.8190, 349.2, 9.8095, 
01:40:08, 80.23, 75.54, 43.478658, 14.122063, 7.35 , +44.4585, +12.5534, 223.1, 7.32, 233.3, 6.981, 984.95, 74.838, 38.8210, 349.7, 11.6699, 
01:41:08, 74.40, 75.37, 43.477283, 14.120100, 7.53 , +44.4646, +12.5611, 227.1, 6.64, 233.9, 6.994, 984.97, 75.150, 38.8190, 352.2, 10.3094, 
01:42:08, 73.90, 80.62, 43.475923, 14.118158, 7.57 , +44.4676, +12.5656, 230.1, 7.21, 233.4, 7.045, 984.85, 76.416, 38.8173, 347.7, 10.0968, 
01:43:08, 73.82, 74.89, 43.474538, 14.116233, 7.29 , +44.4698, +12.5631, 232.4, 6.80, 232.2, 6.902, 985.04, 74.930, 38.8220, 350.2, 9.4858, 
01:44:08, 78.26, 00.00, 43.473166, 14.114285, 7.19 , +44.4689, +12.5704, 226.8, 7.42, 233.8, 7.078, 985.06, 75.846, 38.8136, 352.7, 11.1625, 
01:45:08, 73.06, 74.12, 43.471781, 14.112336, 7.10 , +44.4677, +12.5690, 232.8, 6.93, 233.6, 6.924, 985.13, 73.637, 38.8138, 353.9, 10.4295, 
01:46:08, 76.82, 73.00, 43.470428, 14.110374, 7.19 , +44.4626, +12.5648, 222.2, 7.67, 233.6, 7.001, 985.06, 73.935, 38.8132, 355.8, 9.5510, 
01:47:08, 72.07, 73.15, 43.469041, 14.108420, 6.47 , +44.4620, +12.5637, 220.8, 7.39, 232.3, 7.099, 985.10, 75.530, 38.8137, 351.2, 10.4081, 
01:48:08, 76.80, 72.62, 43.467638, 14.106491, 7.12 , +44.4686, +12.5673, 223.3, 7.51, 232.5, 7.010, 985.06, 75.536, 38.8165, 347.0, 10.5224, 
01:49:08, 72.23, 78.40, 43.466251, 14.104551, 6.63 , +44.4591, +12.5600, 223.6, 6.77, 232.2, 6.917, 985.17, 76.073, 38.8147, 345.9, 9.8388, 
01:50:08, 70.54, 71.62, 43.464849, 14.102681, 7.26 , +44.4505, +12.5535, 226.7, 6.90, 233.9, 6.957, 985.08, 77.080, 38.8130, 348.2, 10.2275, 
01:51:08, 69.99, 76.40, 43.463499, 14.100728, 7.19 , +44.4358, +12.5415, 229.0, 7.19, 234.2, 6.903, 985.09, 76.451, 38.8110, 344.1, 10.6079, 
01:52:08, 76.05, 71.55, 43.462118, 14.098800, 6.72 , +44.4167, +12.5252, 227.6, 7.03, 231.9, 7.003, 984.93, 77.238, 38.8092, 346.5, 10.8502, 
01:53:08, 69.73, 70.82, 43.460715, 14.096866, 6.97 , +44.4008, +12.5118, 224.5, 7.37, 232.1, 6.972, 984.93, 76.486, 38.8075, 350.4, 10.8258, 
01:54:08, 75.88, 71.16, 43.459323, 14.094946, 6.38 , +44.3876, +12.4972, 220.1, 7.19, 234.0, 6.965, 985.09, 76.323, 38.8096, 351.4, 10.2401, 
01:55:08, 70.01, 70.98, 43.457976, 14.092978, 7.38 , +44.3673, +12.4789, 228.3, 6.97, 233.4, 6.974, 985.09, 76.894, 38.8087, 346.8, 10.5981, 
01:56:08, 70.58, 70.70, 43.456591, 14.091090, 6.65 , +44.3409, +12.4612, 227.5, 6.54, 232.2, 7.015, 984.81, 77.350, 38.8011, 345.7, 10.8106, 
01:57:08, 68.98, 69.93, 43.455219, 14.089155, 7.04 , +44.3191, +12.4405, 222.5, 7.30, 232.3, 6.923, 985.23, 77.334, 38.8011, 342.5, 11.0618, 
01:58:08, 68.70, 69.77, 43.453831, 14.087235, 7.05 , +44.3072, +12.4274, 225.3, 7.20, 232.1, 6.929, 985.11, 77.627, 38.8030, 345.7, 10.8941, 
01:59:08, 68.32, 69.27, 43.452456, 14.085318, 6.49 , +44.2947, +12.4163, 225.5, 7.47, 233.4, 7.010, 985.01, 77.975, 38.8023, 341.6, 10.8705, 
02:00:08, 67.86, 84.10, 43.451101, 14.083380, 6.58 , +44.2810, +12.4034, 227.4, 7.13, 232.0, 6.884, 985.15, 76.432, 38.8022, 344.9, 11.7204, 
02:01:08, 67.25, 68.56, 43.449708, 14.081455, 7.04 , +44.2648, +12.3852, 229.9, 7.36, 231.7, 6.861, 985.14, 76.012, 38.8051, 349.2, 10.7260, 
02:02:08, 67.31, 68.30, 43.448293, 14.079543, 6.96 , +44.2480, +12.3727, 226.5, 7.06, 231.5, 6.926, 985.13, 76.971, 38.8016, 346.0, 10.9013, 
02:03:08, 67.98, 68.86, 43.446883, 14.077623, 7.35 , +44.2248, +12.3482, 231.7, 6.67, 232.7, 7.021, 985.30, 78.191, 38.8042, 347.9, 9.6643, 
02:04:08, 67.09, 68.15, 43.445518, 14.075678, 7.14 , +44.2012, +12.3315, 226.5, 7.03, 231.7, 6.908, 985.25, 77.373, 38.7983, 344.7, 10.8639, 
02:05:08, 66.83, 67.65, 43.444098, 14.073750, 6.86 , +44.1771, +12.3073, 218.3, 7.26, 232.3, 6.881, 985.13, 77.231, 38.7996, 341.6, 10.8670, 
02:06:08, 66.11, 67.08, 43.442681, 14.071835, 6.85 , +44.1655, +12.2954, 222.5, 7.58, 232.3, 6.917, 985.08, 77.427, 38.8006, 347.2, 11.0628, 
02:07:08, 66.14, 67.14, 43.441296, 14.069851, 7.01 , +44.1353, +12.2724, 227.5, 7.51, 232.8, 6.783, 985.29, 76.515, 38.7947, 355.3, 10.3091, 
02:08:08, 65.98, 66.99, 43.439890, 14.067916, 6.45 , +44.1230, +12.2621, 218.5, 7.17, 232.8, 6.801, 985.33, 77.093, 38.7933, 348.0, 10.9438, 
02:09:08, 66.36, 67.11, 43.438466, 14.066035, 7.40 , +44.1178, +12.2557, 222.6, 6.75, 232.3, 6.721, 985.38, 77.006, 38.7948, 348.6, 9.8658, 
02:10:08, 68.50, 66.39, 43.437073, 14.064120, 6.81 , +44.1189, +12.2604, 227.8, 7.16, 233.9, 6.738, 985.38, 77.514, 38.7910, 344.9, 10.4819, 
02:11:08, 65.44, 66.15, 43.435678, 14.062193, 6.68 , +44.1148, +12.2553, 220.1, 6.82, 232.1, 6.857, 985.46, 79.149, 38.7922, 340.9, 9.6985, 
02:12:08, 65.20, 66.17, 43.434263, 14.060286, 6.70 , +44.1093, +12.2515, 229.1, 7.13, 232.4, 6.634, 985.38, 77.537, 38.7908, 343.2, 9.6477, 
02:13:08, 64.41, 65.52, 43.432870, 14.058366, 7.27 , +44.1063, +12.2506, 228.8, 7.28, 232.9, 6.684, 985.50, 79.194, 38.7887, 337.1, 10.4389, 
02:14:08, 64.26, 65.35, 43.431475, 14.056430, 7.28 , +44.1096, +12.2557, 223.5, 7.33, 233.3, 6.457, 985.42, 79.126, 38.7867, 337.6, 9.8810, 
02:15:08, 64.03, 64.97, 43.430075, 14.054476, 7.08 , +44.1079, +12.2547, 225.2, 7.39, 233.2, 6.655, 985.52, 81.085, 38.7861, 341.1, 10.9178, 
02:16:08, 63.89, 00.00, 43.428661, 14.052528, 6.74 , +44.1030, +12.2531, 230.5, 7.06, 233.8, 6.490, 985.31, 79.866, 38.7829, 346.7, 11.4142, 
02:17:08, 63.20, 64.16, 43.427291, 14.050545, 7.78 , +44.1033, +12.2519, 223.4, 6.99, 233.1, 6.404, 985.46, 79.379, 38.7844, 343.0, 10.4525, 
02:18:08, 63.12, 63.83, 43.425871, 14.048613, 7.21 , +44.1005, +12.2511, 221.3, 7.06, 232.0, 6.554, 985.38, 80.896, 38.7825, 339.8, 9.6071, 
02:19:08, 62.99, 63.94, 43.424458, 14.046665, 7.51 , +44.1010, +12.2494, 225.7, 8.10, 235.4, 6.354, 984.69, 81.921, 38.7848, 334.9, 10.5800, 
02:20:08, 62.70, 63.62, 43.423086, 14.044643, 7.15 , +44.1031, +12.2511, 220.7, 7.27, 233.7, 6.213, 985.10, 83.489, 38.7851, 12.7, 9.7282, 
02:21:08, 61.96, 63.19, 43.421671, 14.042625, 7.18 , +44.0930, +12.2419, 230.2, 7.21, 231.3, 6.145, 985.40, 83.485, 38.7847, 49.5, 10.3529, 
02:22:08, 61.77, 62.90, 43.420231, 14.040643, 7.07 , +44.0985, +12.2456, 227.1, 7.55, 232.3, 6.130, 985.53, 83.614, 38.7862, 36.8, 8.3753, 
02:23:08, 61.22, 62.40, 43.418830, 14.038610, 7.20 , +44.0998, +12.2491, 229.3, 7.42, 233.7, 6.187, 985.59, 83.909, 38.7839, 30.9, 9.6347, 
02:24:08, 60.94, 61.91, 43.417405, 14.036628, 6.80 , +44.0957, +12.2416, 223.1, 7.34, 232.5, 5.684, 985.82, 81.089, 38.7876, 30.2, 9.3540, 
02:25:08, 61.31, 62.16, 43.416001, 14.034631, 7.09 , +44.0957, +12.2429, 226.0, 7.17, 231.6, 5.593, 985.87, 81.020, 38.7863, 29.4, 7.3975, 
02:26:08, 59.83, 61.03, 43.414544, 14.032661, 7.87 , +44.0942, +12.2387, 230.5, 7.46, 231.2, 5.622, 985.79, 82.299, 38.7892, 23.7, 8.1809, 
02:27:08, 60.66, 61.41, 43.413128, 14.030685, 7.05 , +44.0889, +12.2367, 221.2, 7.11, 233.3, 5.449, 985.97, 82.549, 38.7860, 28.4, 7.7618, 
02:28:08, 59.83, 60.64, 43.411738, 14.028671, 7.21 , +44.0845, +12.2350, 220.4, 7.64, 232.0, 5.649, 985.89, 84.247, 38.7834, 16.6, 8.1551, 
02:29:08, 59.39, 60.48, 43.410308, 14.026663, 7.03 , +44.0774, +12.2217, 225.0, 7.02, 232.0, 5.554, 985.90, 84.387, 38.7903, 23.8, 7.0565, 
02:30:08, 59.25, 60.48, 43.408908, 14.024631, 7.60 , +44.0693, +12.2156, 229.2, 7.32, 232.0, 5.635, 985.81, 84.736, 38.7886, 21.3, 6.5278, 
02:31:08, 59.04, 60.08, 43.407550, 14.022640, 6.98 , +44.0604, +12.2105, 229.8, 6.80, 231.2, 5.720, 985.47, 84.596, 38.7851, 8.4, 1.8717, 
02:32:08, 58.55, 59.35, 43.406168, 14.020690, 6.95 , +44.0559, +12.2036, 219.4, 7.30, 232.6, 5.810, 985.50, 83.975, 38.7878, 6.5, 3.4919, 
02:33:08, 57.84, 58.82, 43.404816, 14.018728, 6.94 , +44.0387, +12.1869, 225.7, 7.20, 233.6, 5.849, 985.66, 84.207, 38.7882, 39.2, 3.8249, 
02:34:08, 57.76, 58.63, 43.403464, 14.016771, 7.20 , +44.0184, +12.1663, 223.9, 7.02, 231.9, 5.899, 985.44, 84.357, 38.7896, 42.2, 6.5039, 
02:35:08, 56.66, 57.82, 43.402111, 14.014818, 7.84 , +43.9939, +12.1498, 228.4, 7.16, 230.6, 5.637, 985.62, 83.198, 38.7825, 29.9, 8.9399, 
02:36:08, 56.34, 57.44, 43.400711, 14.012921, 7.20 , +43.9576, +12.1165, 229.0, 6.92, 232.0, 5.548, 985.71, 82.848, 38.7813, 33.2, 9.0659, 
02:37:08, 56.49, 57.54, 43.399349, 14.010996, 7.20 , +43.9010, +12.0746, 227.8, 7.23, 229.6, 5.273, 985.80, 81.059, 38.7689, 37.8, 7.7931, 
02:38:08, 55.47, 56.50, 43.397918, 14.009135, 7.06 , +43.8562, +12.0343, 223.1, 7.22, 229.2, 5.232, 985.87, 81.275, 38.7665, 35.9, 7.9351, 
02:39:08, 55.59, 56.57, 43.396498, 14.007244, 6.84 , +43.8265, +12.0105, 224.6, 7.11, 230.0, 5.250, 985.68, 81.390, 38.7618, 35.9, 7.9351, 
02:40:08, 55.22, 56.27, 43.395093, 14.005354, 7.81 , +43.���{�, 869, 227.7, 7.04, 229.6, , , �r���j, 0.1229, 35.9, 7.9351, 
02:41:08, 54.58, 55.55, 43.393696, 14.003498, 7.10 , +43.7606, +11.9599, 225.0, 6.82, 230.8, 5.434, 985.83, 81.242, 38.7492, 35.9, 7.9351, 
02:42:08, 54.13, 55.19, 43.392284, 14.001631, , +43.7140, +11.9224, 221.3, 7.15, 229.4, 5.592, 985.75, 82.680, 38.7420, 35.9, 7.9351, 
02:43:08, 53.31, 54.43, 43.390885, 13.999706, 7.09 , +43.6711, +11.8913, 225.6, 7.23, 230.6, 5.494, 985.72, 83.522, 38.7318, 35.9, 7.9351, 
02:44:08, 53.07, 54.12, 43.389489, 13.997779, , ��o������, +11.8598, 223.9, 6.92, 230.6, , 985.76, ��j, , 35.9, 7.9351, 
02:45:08, 52.49, 53.73, 43.388061, 13.995896, 7.62 , +43.5942, +11.8285, 227.5, 7.34, 229.0, 5.286, 985.80, 84.241, 38.7208, 35.9, 7.9351, 
02:46:08, 51.50, 52.79, 43.386628, 13.994030, 6.90 , +43.5569, +11.8019, 225.6, 7.00, 230.4, 5.062, 985.73, 84.357, 38.7114, 35.9, 7.9351, 